This is the latest recevied weather packets stored in our database for station/object SQ9NFI-4. If no packets are shown the sender has not sent any weather packets the latest 10 day(s).
| Time | Temp. | Humidity | Pressure | Rain* | Wind** | Luminosity | Snow |
|---|---|---|---|---|---|---|---|
| 1777632616 | 19.44° C | 36% | 1025.7 hPa | 0 mm | - | 742 W/m² | - |
| 1777632316 | 19.44° C | 37% | 1025.7 hPa | 0 mm | - | 711 W/m² | - |
| 1777631716 | 19.44° C | 37% | 1025.7 hPa | 0 mm | - | 725 W/m² | - |
| 1777631416 | 19.44° C | 37% | 1025.7 hPa | 0 mm | - | 272 W/m² | - |
| 1777631116 | 18.89° C | 40% | 1025.7 hPa | 0 mm | - | 737 W/m² | - |
| 1777630816 | 17.78° C | 40% | 1025.7 hPa | 0 mm | - | 256 W/m² | - |
| 1777630516 | 17.78° C | 41% | 1025.7 hPa | 0 mm | - | 683 W/m² | - |
| 1777630216 | 18.33° C | 38% | 1025.7 hPa | 0 mm | - | 255 W/m² | - |
| 1777629916 | 18.89° C | 38% | 1025.7 hPa | 0 mm | - | 234 W/m² | - |
| 1777629616 | 18.89° C | 37% | 1026.1 hPa | 0 mm | - | 768 W/m² | - |
| 1777629316 | 19.44° C | 38% | 1026.1 hPa | 0 mm | - | 788 W/m² | - |
| 1777629016 | 18.89° C | 37% | 1026.1 hPa | 0 mm | - | 754 W/m² | - |
| 1777628716 | 18.33° C | 37% | 1026.1 hPa | 0 mm | - | 697 W/m² | - |
| 1777628416 | 17.78° C | 38% | 1026.1 hPa | 0 mm | - | 748 W/m² | - |
| 1777628116 | 18.89° C | 37% | 1026.1 hPa | 0 mm | - | 708 W/m² | - |
| 1777627816 | 18.89° C | 38% | 1026.1 hPa | 0 mm | - | 728 W/m² | - |
| 1777627516 | 17.78° C | 37% | 1026.4 hPa | 0 mm | - | 685 W/m² | - |
| 1777627216 | 17.78° C | 38% | 1026.4 hPa | 0 mm | - | 677 W/m² | - |
| 1777626916 | 17.78° C | 40% | 1026.4 hPa | 0 mm | - | 299 W/m² | - |
| 1777626616 | 18.33° C | 38% | 1026.4 hPa | 0 mm | - | 663 W/m² | - |
| 1777626316 | 17.78° C | 38% | 1026.4 hPa | 0 mm | - | 651 W/m² | - |
| 1777626016 | 18.33° C | 39% | 1026.4 hPa | 0 mm | - | 640 W/m² | - |
| 1777625716 | 17.78° C | 37% | 1026.4 hPa | 0 mm | - | 626 W/m² | - |
| 1777625416 | 16.67° C | 40% | 1026.8 hPa | 0 mm | - | 620 W/m² | - |
| 1777625116 | 16.67° C | 41% | 1026.8 hPa | 0 mm | - | 637 W/m² | - |
* Rain latest hour (hover to see other rain measurements)
** Current wind speed in m/s (hover to see current wind gust speed)